Weather History for KAMN - September, 2012

Change the Weather History Date:

Thursday, September 13, 2012

  Actual Average Record
Temperature  
Mean Temperature 65 °F -  
Max Temperature 76 °F 74 °F 94 °F (1952)
Min Temperature 54 °F 51 °F 34 °F (1964)
Growing Degree Days 15 (Base 50)    
Moisture  
Dew Point 57 °F    
Average Humidity 80    
Maximum Humidity 93    
Minimum Humidity 61    
Precipitation  
Precipitation 0.00 in - - ()
Sea Level Pressure  
Sea Level Pressure 30.21 in    
Wind  
Wind Speed 6 mph (WSW)    
Max Wind Speed 15 mph    
Max Gust Speed 24 mph    
Visibility 10 miles    
Events Rain    
Averages and records for this station are not official NWS values.
T = Trace of Precipitation, MM = Missing Value Source: NWS Daily Summary

Daily Weather History Graph

Daily Weather History Graph

Search for Another Location

Airport or City:

Trip Planner

Search our weather history database for the weather conditions in past years. The results will help you decide how hot, cold, wet, or windy it might be!

Date:

Astronomy

Sep. 13, 2012 Rise Set
Actual Time 7:16 AM EDT 7:51 PM EDT
Civil Twilight 6:47 AM EDT 8:20 PM EDT
Nautical Twilight 6:13 AM EDT 8:54 PM EDT
Astronomical Twilight 5:38 AM EDT 9:29 PM EDT
Moon 4:31 AM EDT (9/13) 6:16 PM EDT (9/13)
Length of Visible Light 13h 32m
Length of Day
12h 35m
Waning Crescent, 7% of the Moon is Illuminated
Sep 13
Waning Crescent
Sep 15
New
Sep 22
First Quarter
Sep 29
Full
Oct 8
Last Quarter

Hourly Weather History & Observations

Time (EDT) Temp. Dew Point Humidity Pressure Visibility Wind Dir Wind Speed Gust Speed Precip Events Conditions
12:10 AM 55.9 °F 53.2 °F 91% 30.17 in 10.0 mi Calm Calm - N/A   Clear
12:31 AM 58.3 °F 55.4 °F 90% 30.16 in 10.0 mi SSE 3.5 mph - N/A   Clear
12:50 AM 57.4 °F 54.5 °F 90% 30.16 in 10.0 mi SSE 3.5 mph - N/A   Clear
1:10 AM 58.8 °F 54.3 °F 85% 30.16 in 10.0 mi SSE 3.5 mph - N/A   Clear
1:30 AM 56.5 °F 53.6 °F 90% 30.16 in 10.0 mi South 4.6 mph - N/A   Clear
1:45 AM 59.4 °F 55.2 °F 86% 30.16 in 10.0 mi South 4.6 mph - N/A   Clear
2:08 AM 60.1 °F 55.4 °F 85% 30.17 in 10.0 mi South 5.8 mph - N/A   Clear
2:28 AM 59.2 °F 55.2 °F 87% 30.17 in 10.0 mi South 4.6 mph - N/A   Clear
2:50 AM 58.8 °F 55.0 °F 87% 30.16 in 10.0 mi South 4.6 mph - N/A   Clear
3:10 AM 58.1 °F 54.7 °F 88% 30.16 in 10.0 mi South 4.6 mph - N/A   Clear
3:30 AM 58.6 °F 55.4 °F 89% 30.16 in 10.0 mi South 4.6 mph - N/A   Clear
3:50 AM 58.8 °F 55.2 °F 88% 30.16 in 10.0 mi South 4.6 mph - N/A   Clear
4:31 AM 59.0 °F 55.2 °F 87% 30.16 in 10.0 mi South 5.8 mph - N/A   Clear
4:51 AM 59.5 °F 55.6 °F 87% 30.17 in 10.0 mi SSW 6.9 mph - N/A   Scattered Clouds
5:11 AM 59.4 °F 55.6 °F 87% 30.18 in 10.0 mi SSW 5.8 mph - N/A   Mostly Cloudy
5:31 AM 59.7 °F 55.8 °F 87% 30.18 in 10.0 mi South 6.9 mph - N/A   Mostly Cloudy
5:51 AM 59.9 °F 55.9 °F 87% 30.18 in 10.0 mi South 6.9 mph - N/A   Mostly Cloudy
6:11 AM 59.9 °F 56.1 °F 87% 30.18 in 10.0 mi SSW 6.9 mph - N/A   Mostly Cloudy
6:31 AM 59.9 °F 56.3 °F 88% 30.18 in 10.0 mi SSW 6.9 mph - N/A   Mostly Cloudy
6:51 AM 60.4 °F 56.3 °F 86% 30.19 in 10.0 mi SSW 6.9 mph - N/A   Overcast
7:12 AM 60.4 °F 56.3 °F 86% 30.19 in 10.0 mi SSW 6.9 mph - N/A   Overcast
7:32 AM 61.0 °F 56.8 °F 86% 30.19 in 10.0 mi SSW 8.1 mph - N/A   Overcast
7:52 AM 61.9 °F 57.4 °F 85% 30.19 in 10.0 mi SSW 6.9 mph - N/A   Overcast
8:12 AM 62.6 °F 57.7 °F 84% 30.19 in 10.0 mi SSW 4.6 mph - N/A   Overcast
8:32 AM 63.1 °F 58.5 °F 85% 30.19 in 7.0 mi South 8.1 mph - N/A   Overcast
8:52 AM 64.4 °F 58.8 °F 82% 30.19 in 10.0 mi SSW 6.9 mph - N/A   Overcast
9:12 AM 65.1 °F 59.7 °F 83% 30.20 in 10.0 mi SSW 6.9 mph - N/A   Overcast
9:32 AM 66.6 °F 60.1 °F 80% 30.21 in 10.0 mi SW 5.8 mph - N/A   Overcast
9:52 AM 66.6 °F 60.3 °F 80% 30.21 in 10.0 mi SSW 4.6 mph - N/A   Overcast
10:13 AM 67.1 °F 60.4 °F 79% 30.22 in 10.0 mi SW 4.6 mph - N/A   Overcast
10:33 AM 68.0 °F 60.4 °F 77% 30.23 in 10.0 mi SW 6.9 mph - N/A   Overcast
10:48 AM 68.9 °F 61.2 °F 76% 30.24 in 10.0 mi SW 5.8 mph - N/A   Overcast
11:08 AM 68.9 °F 61.3 °F 77% 30.23 in 10.0 mi SW 9.2 mph - N/A   Overcast
11:28 AM 69.3 °F 61.7 °F 77% 30.23 in 10.0 mi SW 4.6 mph - N/A   Overcast
11:48 AM 70.3 °F 62.8 °F 77% 30.22 in 10.0 mi SSW 4.6 mph - N/A   Overcast
12:08 PM 72.3 °F 62.8 °F 72% 30.21 in 10.0 mi SW 8.1 mph - N/A   Scattered Clouds
12:28 PM 73.8 °F 63.5 °F 70% 30.22 in 10.0 mi SW 9.2 mph - N/A   Scattered Clouds
12:49 PM 73.4 °F 63.1 °F 70% 30.22 in 10.0 mi West 9.2 mph - N/A   Mostly Cloudy
1:09 PM 74.3 °F 62.6 °F 67% 30.22 in 10.0 mi WSW 6.9 mph - N/A   Mostly Cloudy
1:29 PM 74.5 °F 62.6 °F 66% 30.21 in 10.0 mi West 6.9 mph - N/A   Mostly Cloudy
1:49 PM 74.5 °F 62.2 °F 66% 30.20 in 10.0 mi WSW 8.1 mph - N/A   Overcast
2:12 PM 73.9 °F 62.6 °F 68% 30.20 in 10.0 mi West 5.8 mph - N/A   Overcast
2:27 PM 76.1 °F 63.0 °F 64% 30.19 in 10.0 mi WSW 10.4 mph - N/A   Overcast
2:52 PM 76.1 °F 62.6 °F 63% 30.19 in 10.0 mi West 6.9 mph - N/A   Mostly Cloudy
3:12 PM 75.6 °F 61.3 °F 61% 30.19 in 10.0 mi West 13.8 mph - N/A   Overcast
3:32 PM 74.3 °F 60.8 °F 63% 30.19 in 10.0 mi West 11.5 mph - N/A   Overcast
3:52 PM 73.4 °F 59.9 °F 63% 30.19 in 10.0 mi WNW 10.4 mph - N/A   Overcast
4:12 PM 71.8 °F 58.5 °F 63% 30.19 in 10.0 mi NW 11.5 mph 17.3 mph N/A   Overcast
4:32 PM 70.3 °F 58.1 °F 65% 30.19 in 10.0 mi WNW 11.5 mph - N/A   Overcast
4:52 PM 67.5 °F 54.0 °F 62% 30.19 in 10.0 mi NW 12.7 mph 24.2 mph N/A   Overcast
5:13 PM 65.3 °F 54.1 °F 67% 30.20 in 10.0 mi NW 15.0 mph 20.7 mph N/A   Overcast
5:33 PM 63.5 °F 53.6 °F 70% 30.21 in 10.0 mi NNW 15.0 mph 23.0 mph N/A   Overcast
5:53 PM 61.9 °F 53.1 °F 73% 30.22 in 10.0 mi NNW 12.7 mph - N/A   Overcast
6:13 PM 61.0 °F 52.7 °F 74% 30.23 in 10.0 mi NNW 10.4 mph 18.4 mph N/A   Overcast
6:33 PM 60.4 °F 52.2 °F 74% 30.24 in 10.0 mi NNW 12.7 mph 19.6 mph N/A   Overcast
6:53 PM 59.5 °F 51.3 °F 74% 30.24 in 10.0 mi North 11.5 mph 18.4 mph N/A   Overcast
7:13 PM 59.2 °F 51.3 °F 75% 30.25 in 10.0 mi North 12.7 mph 17.3 mph N/A   Overcast
7:33 PM 58.3 °F 52.2 °F 80% 30.26 in 10.0 mi North 4.6 mph - N/A Rain Light Rain
7:54 PM 58.1 °F 52.7 °F 82% 30.27 in 10.0 mi NNW 4.6 mph - N/A   Overcast
8:14 PM 57.7 °F 53.1 °F 84% 30.27 in 10.0 mi North 3.5 mph - N/A   Light Drizzle
8:34 PM 57.0 °F 53.1 °F 87% 30.28 in 10.0 mi NNW 4.6 mph - N/A Rain Rain
8:54 PM 56.7 °F 53.4 °F 89% 30.29 in 10.0 mi NW 5.8 mph - N/A   Light Drizzle
9:14 PM 55.8 °F 53.2 °F 91% 30.28 in 7.0 mi North 3.5 mph - N/A   Drizzle
9:34 PM 55.9 °F 53.4 °F 91% 30.28 in 10.0 mi Calm Calm - N/A   Overcast
9:54 PM 55.8 °F 53.8 °F 93% 30.28 in 10.0 mi Calm Calm - N/A   Overcast
10:14 PM 55.8 °F 53.8 °F 93% 30.28 in 10.0 mi North 4.6 mph - N/A   Drizzle
10:34 PM 55.4 °F 53.4 °F 93% 30.29 in 10.0 mi North 5.8 mph - N/A   Drizzle
10:55 PM 55.0 °F 52.9 °F 92% 30.29 in 10.0 mi North 6.9 mph - N/A   Light Drizzle
11:15 PM 54.9 °F 52.5 °F 92% 30.30 in 10.0 mi NNE 5.8 mph - N/A   Overcast
11:35 PM 54.5 °F 51.1 °F 88% 30.31 in 10.0 mi North 4.6 mph - N/A Rain Light Rain
11:55 PM 54.1 °F 51.4 °F 91% 30.31 in 10.0 mi North 4.6 mph - N/A Rain Light Rain